Regional Weather Roundup
Issued by NWS

Home | Current Version | Previous Version | Graphics & Text | Print | Product List | Glossary On
Versions: 1 2 3 4 5 6 7 8 9 10 11 12 13 14 15 16 17 18 19 20 21 22 23 24 25 26 27 28 29 30 31 32 33 34 35 36 37 38 39 40 41 42 43 44 45 46 47 48 49 50
000
ASUS45 KTFX 271919
RWRMT
MONTANA REGIONAL WEATHER ROUNDUP
NATIONAL WEATHER SERVICE GREAT FALLS MT
100 PM MDT THU AUG 27 2015

NOTE: "FAIR" INDICATES FEW OR NO CLOUDS BELOW 12000 FEET WITH NO
SIGNIFICANT WEATHER AND/OR OBSTRUCTIONS TO VISIBILITY.

MTZ001>007-043-272000-
WEST OF THE DIVIDE

CITY           SKY/WX    TMP DP  RH WIND       PRES   REMARKS
KALISPELL      CLOUDY    78  43  28 SE5       30.05F SMOKE
MISSOULA       CLOUDY    74  40  29 CALM      30.09F HAZE
BUTTE          PTSUNNY   79  38  22 N5        30.23F
MULLAN PASS    PTSUNNY   71  36  27 VRB3      30.26S HAZE
DEER LODGE       N/A     77  39  25 NW8       30.21S
EUREKA           N/A     75  43  31 S3        30.03F
HAMILTON         N/A     72  45  37 N2        30.10F
LIBBY            N/A     72  43  35 CALM      30.05F
PLAINS           N/A     80  43  27 CALM      30.05F
RONAN            N/A     84  45  25 SW3       30.10F
THOMPSON FALLS   N/A     79  43  27 W2        30.08F
$$

MTZ008-052>055-272000-
SOUTHWEST MONTANA

CITY           SKY/WX    TMP DP  RH WIND       PRES   REMARKS
BOZEMAN        CLOUDY    72  53  51 NE6       30.19F
DILLON         MOSUNNY   80  42  25 VRB3      30.20F
W YELLOWSTONE  PTSUNNY   68  48  49 SW9       30.34S
THREE FORKS      N/A     75  43  31 E9        30.15S
TWIN BRIDGES     N/A     76  46  34 S6        30.17F
$$

MTZ009-010-012-014-046-048-049-054-272000-
EAST SLOPES AND CENTRAL MONTANA

CITY           SKY/WX    TMP DP  RH WIND       PRES   REMARKS
CUT BANK       CLOUDY    84  35  17 W22       30.03F HAZE
GREAT FALLS    CLOUDY    85  39  19 SW15      30.03F
MALMSTROM AFB  PTSUNNY   83  42  22 SW14G20   30.03F
HELENA         PTSUNNY   74  45  35 CALM      30.11F
CONRAD           N/A     88  39  17 W10       30.04F
$$

MTZ011-013-016-021-045-047-050-051-272000-
NORTH CENTRAL MONTANA

CITY           SKY/WX    TMP DP  RH WIND       PRES   REMARKS
HAVRE          MOSUNNY   81  50  33 SW15G22   29.96F
LEWISTOWN      CLOUDY    85  43  22 W16       30.07F
N BAR RANCH      N/A     81  48  32 CALM      30.10F
CHINOOK          N/A     81  54  39 SW7       29.95S
FORT BENTON      N/A     75  45  33 S3        30.00F
$$

MTZ017>020-022>027-061-062-272000-
NORTHEAST MONTANA

CITY           SKY/WX    TMP DP  RH WIND       PRES   REMARKS
GLASGOW        SUNNY     82  57  42 VRB6      29.92F
JORDAN           N/A     86  56  35 VRB3      29.95F
SIDNEY         PTSUNNY   82  64  54 S5        29.93F
WOLF POINT     MOSUNNY   84  60  44 VRB6      29.93F
MALTA            N/A     83  58  42 CALM      29.90F
PLENTYWOOD       N/A     84  59  42 S6        29.94F
POPLAR           N/A     82  61  47 CALM      29.94S
SCOBEY           N/A     85  54  34 E5        29.93F
$$

MTZ028>42-056>058-272000-
SOUTHCENTRAL AND SOUTHEAST MONTANA

CITY           SKY/WX    TMP DP  RH WIND       PRES   REMARKS
BAKER          PTSUNNY   84  63  49 W8        29.98F
BILLINGS       PTSUNNY   83  50  31 SW16      30.06F
LIVINGSTON     PTSUNNY   79  44  28 W23G32    30.17S
MILES CITY     MOSUNNY   88  51  28 W8        29.96F
EKALAKA          N/A     83  52  34 W16       29.99F
FORSYTH          N/A     84  52  32 W10G17    29.97F
LAUREL           N/A     83  49  30 S13       30.05F
ROUNDUP          N/A     83  46  27 SW8       29.94F
$$

REGIONAL REPORTS...DAKOTAS

CITY           SKY/WX    TMP DP  RH WIND       PRES   REMARKS
WILLISTON      MOSUNNY   80  64  58 CALM      29.94F
MINOT          PTSUNNY   77  61  57 SE7       29.94F
DICKINSON      PTSUNNY   84  58  40 VRB3      29.95F
BEACH            N/A     79  64  61 N7        29.98F
CROSBY           N/A     82  57  42 SW5       29.94F
BISMARCK       PTSUNNY   77  67  71 VRB5      29.97F
GRAND FORKS    PTSUNNY   75  60  59 S9        29.94F
FARGO          MOSUNNY   77  63  61 S5        29.95F
BUFFALO SD       N/A     83  63  50 SW7       29.92F
RAPID CITY     CLOUDY    71  56  58 NW16      30.03F
$$

REGIONAL REPORTS...WYOMING/IDAHO/WASHINGTON

CITY           SKY/WX    TMP DP  RH WIND       PRES   REMARKS
GILLETTE       MOSUNNY   80  51  36 VRB7      30.10F
SHERIDAN       MOSUNNY   88  46  23 W5        30.07S
BUFFALO WY     PTSUNNY   78  47  33 S7        30.15F
CODY           SUNNY     79  45  29 CALM      30.17F
YELLOWSTONE LA   N/A     61  48  62 VRB3      30.44F
IDAHO FALLS    PTSUNNY   78  52  40 VRB6      30.25F
SALMON         MOSUNNY   81  48  32 N7        30.11F
BOISE          MOSUNNY   88  39  17 NE7       30.14F
SPOKANE        MOSUNNY   79  40  24 S14       30.07S
$$

REGIONAL REPORTS...ALBERTA

CITY           SKY/WX    TMP DP  RH WIND       PRES   REMARKS
EDMONTON       PTSUNNY   73  57  56 W7        29.88F
CALGARY        CLOUDY    66  54  63 VRB2      29.97F SMOKE
LETHBRIDGE     CLOUDY    79  48  34 W15       29.96F SMOKE
MEDICINE HAT   CLOUDY    77  52  41 W14       29.92F
WATERTON GATE    N/A     81  39  22 SW10        N/A
ONEFOUR          N/A     75  46  35 SW5         N/A
$$

REGIONAL REPORTS...SASKATCHEWAN

CITY           SKY/WX    TMP DP  RH WIND       PRES   REMARKS
SWIFT CURRENT  MOSUNNY   82  52  34 W6        29.90F
REGINA         PTSUNNY   79  57  47 W6        29.90F
SASKATOON      SUNNY     77  57  50 VRB5      29.89F
CYPRESS HILLS    N/A     70  46  43 SW6         N/A
ROCKGLEN         N/A     84  48  28 S6          N/A
ASSINIBOIA       N/A     75  57  53 SW5         N/A
$$



USA.gov is the U.S. government's official web portal to all federal, state and local government web resources and services.